Regional Weather Roundup
Issued by NWS

Home | Current Version | Previous Version | Text Only | Print | Product List | Glossary On
Versions: 1 2 3 4 5 6 7 8 9 10 11 12 13 14 15 16 17 18 19 20 21 22 23 24 25 26 27 28 29 30 31 32 33 34 35 36 37 38 39 40 41 42 43 44 45 46 47 48 49 50
000
ASUS43 KFSD 020402
RWRSD

WEATHER ROUNDUP FOR SOUTH DAKOTA
NATIONAL WEATHER SERVICE SIOUX FALLS SD
1100 PM CDT SAT AUG 01 2015

NOTE: "FAIR" INDICATES FEW OR NO CLOUDS BELOW 12,000 FEET WITH NO
SIGNIFICANT WEATHER AND/OR OBSTRUCTIONS TO VISIBILITY.


SDZ001>005-009-010-012>017-020500-
NORTHWEST AND NORTH CENTRAL SOUTH DAKOTA

CITY           SKY/WX    TMP DP  RH WIND       PRES   REMARKS
BUFFALO          N/A     77  35  21 N15       29.82R
FAITH            N/A     73  41  31 S10       29.84S
MOBRIDGE       CLEAR     69  62  78 SE7       29.74F
$$

SDZ012>016-024>037-041>051-057-063-072>074-020500-
SOUTHWEST AND SOUTH CENTRAL SOUTH DAKOTA

CITY           SKY/WX    TMP DP  RH WIND       PRES   REMARKS
RAPID CTY ARPT CLEAR     71  55  56 S8        29.93R
PIERRE         CLEAR     78  62  57 SW10      29.81R
CUSTER         CLEAR     69  51  52 S5        30.12R
ELLSWORTH AFB  CLEAR     74  56  52 SW7       29.92R
PHILIP         CLEAR     78  62  57 S13       29.86R
PINE RIDGE     CLEAR     75  60  59 E5        29.99R
WINNER         FAIR      77  59  53 SW12      29.87S
$$

SDZ004>011-016>023-039-040-020500-
NORTHEAST SOUTH DAKOTA

CITY           SKY/WX    TMP DP  RH WIND       PRES   REMARKS
ABERDEEN       CLEAR     72  64  76 W7        29.75S
WATERTOWN      CLEAR     73  64  73 SW10      29.78S
BROOKINGS      CLEAR     72  63  73 S9        29.83S
SISSETON         N/A     69  66  90 VRB3      29.72R
$$

SDZ017-020-022-023-036>040-048>070-020500-
SOUTHEAST SOUTH DAKOTA

CITY           SKY/WX    TMP DP  RH WIND       PRES   REMARKS
SIOUX FALLS    PTCLDY    75  67  76 SW8       29.84S
HURON          CLEAR     76  63  64 SW9       29.78S
MITCHELL       CLEAR     77  63  61 SW8       29.82R
YANKTON        CLEAR     73  63  68 SW9       29.85S
$$

ABBREVIATIONS USED IN REMARKS
   TC - TEMPERATURE IN CELSIUS
  WCI - WIND CHILL INDEX
   HX - HEAT INDEX
  VSB - VISIBILITY




USA.gov is the U.S. government's official web portal to all federal, state and local government web resources and services.